| time (UTC) | temp C | wind direction | speed KPH | gust KPH | rain 1hr cm | rain 24hr cm | rain mn cm | humidity % | barometer mb |
| 20260906072435 | 21 | 13 | 0.0 | 0.0 | 0.00 | 0.00 | 0.00 | 86 | 1019.2 |
| 20260906071931 | 21 | 13 | 0.0 | 0.0 | 0.00 | 0.00 | 0.00 | 86 | 1018.9 |
| 20260906071427 | 21 | 291 | 1.6 | 1.6 | 0.00 | 0.00 | 0.00 | 86 | 1019.1 |
| 20260906070923 | 21 | 333 | 1.6 | 1.6 | 0.00 | 0.00 | 0.00 | 86 | 1019.1 |
| 20260906070419 | 21 | 322 | 1.6 | 1.6 | 0.00 | 0.00 | 0.00 | 85 | 1019.1 |
| 20260906065915 | 21 | 27 | 0.0 | 0.0 | 0.00 | 0.00 | 0.00 | 85 | 1019.1 |
| 20260906065409 | 21 | 14 | 0.0 | 0.0 | 0.00 | 0.00 | 0.00 | 84 | 1019.1 |
| 20260906064905 | 21 | 25 | 0.0 | 0.0 | 0.00 | 0.00 | 0.00 | 84 | 1019.4 |
| 20260906064401 | 22 | 16 | 0.0 | 0.0 | 0.00 | 0.00 | 0.00 | 84 | 1019.6 |
| 20260906063900 | 22 | 17 | 0.0 | 0.0 | 0.00 | 0.00 | 0.00 | 83 | 1019.7 |
| 20260906063355 | 22 | 14 | 0.0 | 0.0 | 0.00 | 0.00 | 0.00 | 83 | 1019.8 |
| 20260906062850 | 22 | 342 | 1.6 | 1.6 | 0.00 | 0.00 | 0.00 | 82 | 1019.9 |
| 20260906062350 | 22 | 8 | 1.6 | 1.6 | 0.00 | 0.00 | 0.00 | 83 | 1019.9 |
| 20260906061845 | 22 | 17 | 0.0 | 1.6 | 0.00 | 0.00 | 0.00 | 83 | 1020.1 |
| 20260906061342 | 22 | 312 | 1.6 | 1.6 | 0.00 | 0.00 | 0.00 | 82 | 1020.2 |
| 20260906060836 | 22 | 13 | 0.0 | 0.0 | 0.00 | 0.00 | 0.00 | 82 | 1020.0 |
| 20260906060334 | 22 | 335 | 1.6 | 1.6 | 0.00 | 0.00 | 0.00 | 83 | 1020.2 |
| 20260906055830 | 21 | 15 | 0.0 | 0.0 | 0.00 | 0.00 | 0.00 | 84 | 1020.3 |
| 20260906055325 | 21 | 10 | 0.0 | 0.0 | 0.00 | 0.00 | 0.00 | 85 | 1020.3 |
| 20260906054820 | 21 | 13 | 0.0 | 0.0 | 0.00 | 0.00 | 0.00 | 84 | 1020.3 |
| 20260906054315 | 21 | 10 | 0.0 | 0.0 | 0.00 | 0.00 | 0.00 | 85 | 1020.1 |
| 20260906053812 | 21 | 326 | 1.6 | 1.6 | 0.00 | 0.00 | 0.00 | 86 | 1020.3 |
| 20260906053307 | 21 | 335 | 0.0 | 1.6 | 0.00 | 0.00 | 0.00 | 85 | 1020.4 |
| 20260906052802 | 21 | 309 | 1.6 | 1.6 | 0.00 | 0.00 | 0.00 | 85 | 1020.2 |
| 20260906052258 | 21 | 352 | 1.6 | 1.6 | 0.00 | 0.00 | 0.00 | 84 | 1020.3 |
| 20260906051755 | 22 | 15 | 0.0 | 0.0 | 0.00 | 0.00 | 0.00 | 83 | 1020.2 |
| 20260906051254 | 22 | 29 | 0.0 | 0.0 | 0.00 | 0.00 | 0.00 | 82 | 1020.1 |
| 20260906050750 | 22 | 333 | 0.0 | 0.0 | 0.00 | 0.00 | 0.00 | 81 | 1020.3 |
| 20260906050245 | 22 | 38 | 0.0 | 0.0 | 0.00 | 0.00 | 0.00 | 81 | 1020.3 |
| 20260906045744 | 22 | 15 | 0.0 | 0.0 | 0.00 | 0.00 | 0.00 | 81 | 1020.4 |
| 20260906045239 | 22 | 349 | 0.0 | 0.0 | 0.00 | 0.00 | 0.00 | 81 | 1020.3 |
| 20260906044735 | 22 | 35 | 1.6 | 1.6 | 0.00 | 0.00 | 0.00 | 81 | 1020.7 |
| 20260906044229 | 22 | 354 | 0.0 | 1.6 | 0.00 | 0.00 | 0.00 | 81 | 1020.6 |
| 20260906043726 | 22 | 4 | 1.6 | 1.6 | 0.00 | 0.00 | 0.00 | 81 | 1020.6 |
| 20260906043221 | 22 | 346 | 1.6 | 1.6 | 0.00 | 0.00 | 0.00 | 81 | 1020.3 |
| 20260906042721 | 22 | 14 | 0.0 | 0.0 | 0.00 | 0.00 | 0.00 | 81 | 1020.6 |
| 20260906042220 | 22 | 359 | 0.0 | 1.6 | 0.00 | 0.00 | 0.00 | 81 | 1020.6 |
| 20260906041716 | 22 | 14 | 0.0 | 0.0 | 0.00 | 0.00 | 0.00 | 80 | 1020.7 |
| 20260906041211 | 22 | 351 | 1.6 | 1.6 | 0.00 | 0.00 | 0.00 | 80 | 1020.7 |
| 20260906040706 | 22 | 16 | 0.0 | 0.0 | 0.00 | 0.00 | 0.00 | 79 | 1020.7 |
| 20260906040202 | 22 | 16 | 0.0 | 0.0 | 0.00 | 0.00 | 0.00 | 79 | 1020.4 |
| 20260906035657 | 22 | 19 | 0.0 | 0.0 | 0.00 | 0.00 | 0.00 | 79 | 1020.6 |
| 20260906035153 | 22 | 24 | 0.0 | 0.0 | 0.00 | 0.00 | 0.00 | 78 | 1020.7 |
| 20260906034647 | 22 | 17 | 0.0 | 0.0 | 0.00 | 0.00 | 0.00 | 78 | 1020.7 |
| 20260906034142 | 23 | 5 | 0.0 | 1.6 | 0.00 | 0.00 | 0.00 | 78 | 1020.8 |
| 20260906033638 | 22 | 12 | 0.0 | 1.6 | 0.00 | 0.00 | 0.00 | 77 | 1020.8 |
| 20260906033137 | 22 | 12 | 0.0 | 1.6 | 0.00 | 0.00 | 0.00 | 76 | 1020.8 |
| 20260906032635 | 22 | 335 | 1.6 | 1.6 | 0.00 | 0.00 | 0.00 | 76 | 1020.8 |
| 20260906032134 | 22 | 18 | 0.0 | 0.0 | 0.00 | 0.00 | 0.00 | 76 | 1020.7 |
| 20260906031629 | 22 | 14 | 0.0 | 0.0 | 0.00 | 0.00 | 0.00 | 76 | 1020.6 |
| 20260906031125 | 22 | 13 | 0.0 | 0.0 | 0.00 | 0.00 | 0.00 | 76 | 1020.8 |
| 20260906030624 | 22 | 22 | 0.0 | 0.0 | 0.00 | 0.00 | 0.00 | 76 | 1020.8 |
| 20260906030120 | 22 | 15 | 0.0 | 0.0 | 0.00 | 0.00 | 0.00 | 76 | 1020.9 |
| 20260906025619 | 22 | 15 | 0.0 | 0.0 | 0.00 | 0.00 | 0.00 | 76 | 1020.8 |
| 20260906025118 | 22 | 7 | 0.0 | 0.0 | 0.00 | 0.00 | 0.00 | 76 | 1020.8 |
| 20260906024613 | 22 | 17 | 0.0 | 0.0 | 0.00 | 0.00 | 0.00 | 76 | 1020.8 |
| 20260906024113 | 23 | 348 | 1.6 | 1.6 | 0.00 | 0.00 | 0.00 | 76 | 1020.9 |
| 20260906023604 | 23 | 8 | 0.0 | 1.6 | 0.00 | 0.00 | 0.00 | 74 | 1020.8 |
| 20260906023103 | 23 | 7 | 0.0 | 0.0 | 0.00 | 0.00 | 0.00 | 75 | 1020.7 |
| 20260906022558 | 23 | 13 | 0.0 | 0.0 | 0.00 | 0.00 | 0.00 | 75 | 1020.7 |
| 20260906022054 | 23 | 13 | 0.0 | 0.0 | 0.00 | 0.00 | 0.00 | 75 | 1020.7 |
| 20260906021550 | 23 | 19 | 0.0 | 0.0 | 0.00 | 0.00 | 0.00 | 74 | 1020.6 |
| 20260906021049 | 23 | 25 | 0.0 | 0.0 | 0.00 | 0.00 | 0.00 | 73 | 1020.7 |
| 20260906020548 | 23 | 18 | 0.0 | 0.0 | 0.00 | 0.00 | 0.00 | 73 | 1020.6 |
| 20260906020048 | 23 | 20 | 0.0 | 0.0 | 0.00 | 0.00 | 0.00 | 73 | 1020.4 |
| 20260906015547 | 23 | 19 | 0.0 | 0.0 | 0.00 | 0.00 | 0.00 | 72 | 1020.6 |
| 20260906015047 | 23 | 10 | 0.0 | 0.0 | 0.00 | 0.00 | 0.00 | 72 | 1020.3 |
| 20260906014542 | 23 | 15 | 0.0 | 0.0 | 0.00 | 0.00 | 0.00 | 72 | 1020.6 |
| 20260906014038 | 22 | 27 | 0.0 | 0.0 | 0.00 | 0.00 | 0.00 | 72 | 1020.7 |
| 20260906013533 | 22 | 19 | 0.0 | 0.0 | 0.00 | 0.00 | 0.00 | 73 | 1020.6 |
| 20260906013029 | 22 | 299 | 1.6 | 1.6 | 0.00 | 0.00 | 0.00 | 73 | 1020.2 |
| 20260906012524 | 22 | 21 | 0.0 | 0.0 | 0.00 | 0.00 | 0.00 | 73 | 1020.3 |
| 20260906012023 | 22 | 3 | 1.6 | 1.6 | 0.00 | 0.00 | 0.00 | 73 | 1020.3 |
| 20260906011519 | 23 | 1 | 0.0 | 1.6 | 0.00 | 0.00 | 0.00 | 71 | 1020.3 |
| 20260906011018 | 22 | 322 | 1.6 | 1.6 | 0.00 | 0.00 | 0.00 | 72 | 1020.1 |
| 20260906010514 | 22 | 345 | 0.0 | 1.6 | 0.00 | 0.00 | 0.00 | 72 | 1020.2 |
| 20260906010011 | 23 | 352 | 0.0 | 1.6 | 0.00 | 0.00 | 0.00 | 72 | 1020.1 |
| 20260906005509 | 23 | 0 | 1.6 | 1.6 | 0.00 | 0.00 | 0.00 | 69 | 1020.1 |
| 20260906005008 | 23 | 40 | 0.0 | 0.0 | 0.00 | 0.00 | 0.00 | 68 | 1020.0 |
| 20260906004503 | 23 | 25 | 0.0 | 0.0 | 0.00 | 0.00 | 0.00 | 68 | 1019.9 |
| 20260906003958 | 23 | 86 | 1.6 | 1.6 | 0.00 | 0.00 | 0.00 | 68 | 1019.9 |
| 20260906003453 | 23 | 48 | 0.0 | 1.6 | 0.00 | 0.00 | 0.00 | 69 | 1019.7 |
| 20260906002948 | 23 | 80 | 1.6 | 1.6 | 0.00 | 0.00 | 0.00 | 68 | 1019.7 |
| 20260906002448 | 23 | 332 | 1.6 | 1.6 | 0.00 | 0.00 | 0.00 | 70 | 1019.6 |
| 20260906001943 | 23 | 50 | 0.0 | 0.0 | 0.00 | 0.00 | 0.00 | 67 | 1019.6 |
| 20260906001440 | 23 | 16 | 0.0 | 0.0 | 0.00 | 0.00 | 0.00 | 68 | 1019.6 |
| 20260906000934 | 23 | 44 | 0.0 | 0.0 | 0.00 | 0.00 | 0.00 | 66 | 1019.3 |
| 20260906000430 | 23 | 37 | 0.0 | 0.0 | 0.00 | 0.00 | 0.00 | 67 | 1019.3 |
| 20260905235925 | 23 | 8 | 0.0 | 0.0 | 0.00 | 0.00 | 0.00 | 68 | 1019.2 |
| 20260905235424 | 23 | 6 | 0.0 | 0.0 | 0.00 | 0.00 | 0.00 | 69 | 1019.1 |
| 20260905234919 | 23 | 345 | 0.0 | 1.6 | 0.00 | 0.00 | 0.00 | 69 | 1019.2 |
| 20260905234414 | 24 | 15 | 0.0 | 0.0 | 0.00 | 0.00 | 0.00 | 67 | 1019.2 |
| 20260905233909 | 24 | 16 | 0.0 | 0.0 | 0.00 | 0.00 | 0.00 | 68 | 1019.2 |
| 20260905233404 | 24 | 3 | 0.0 | 0.0 | 0.00 | 0.00 | 0.00 | 66 | 1019.4 |
| 20260905232903 | 24 | 6 | 0.0 | 0.0 | 0.00 | 0.00 | 0.00 | 67 | 1019.4 |
| 20260905232400 | 25 | 2 | 0.0 | 1.6 | 0.00 | 0.00 | 0.00 | 67 | 1019.4 |
| 20260905231855 | 25 | 353 | 0.0 | 1.6 | 0.00 | 0.00 | 0.00 | 67 | 1019.2 |
| 20260905231350 | 25 | 26 | 0.0 | 0.0 | 0.00 | 0.00 | 0.00 | 64 | 1019.2 |
| 20260905230847 | 25 | 19 | 0.0 | 0.0 | 0.00 | 0.00 | 0.00 | 64 | 1019.2 |
| 20260905230344 | 25 | 321 | 1.6 | 1.6 | 0.00 | 0.00 | 0.00 | 65 | 1019.2 |
| 20260905225843 | 26 | 2 | 0.0 | 1.6 | 0.00 | 0.00 | 0.00 | 64 | 1019.3 |
| 20260905225338 | 26 | 352 | 1.6 | 1.6 | 0.00 | 0.00 | 0.00 | 64 | 1019.3 |
| 20260905224833 | 26 | 325 | 1.6 | 1.6 | 0.00 | 0.00 | 0.00 | 63 | 1019.2 |
| 20260905224329 | 26 | 4 | 0.0 | 0.0 | 0.00 | 0.00 | 0.00 | 63 | 1019.4 |
| 20260905223824 | 26 | 343 | 1.6 | 1.6 | 0.00 | 0.00 | 0.00 | 63 | 1019.3 |
| 20260905223322 | 27 | 23 | 0.0 | 0.0 | 0.00 | 0.00 | 0.00 | 60 | 1019.3 |
| 20260905222816 | 27 | 38 | 0.0 | 0.0 | 0.00 | 0.00 | 0.00 | 61 | 1019.4 |
| 20260905222315 | 27 | 50 | 0.0 | 1.6 | 0.00 | 0.00 | 0.00 | 58 | 1019.4 |
| 20260905221811 | 27 | 38 | 0.0 | 0.0 | 0.00 | 0.00 | 0.00 | 57 | 1019.4 |
| 20260905221308 | 27 | 28 | 0.0 | 1.6 | 0.00 | 0.00 | 0.00 | 55 | 1019.4 |
| 20260905220803 | 27 | 40 | 0.0 | 0.0 | 0.00 | 0.00 | 0.00 | 54 | 1019.1 |
| 20260905220300 | 27 | 5 | 0.0 | 0.0 | 0.00 | 0.00 | 0.00 | 55 | 1019.3 |
| 20260905215759 | 27 | 18 | 0.0 | 1.6 | 0.00 | 0.00 | 0.00 | 54 | 1019.3 |
| 20260905215255 | 27 | 315 | 1.6 | 1.6 | 0.00 | 0.00 | 0.00 | 53 | 1019.3 |
| 20260905214750 | 28 | 33 | 1.6 | 1.6 | 0.00 | 0.00 | 0.00 | 53 | 1019.3 |
| 20260905214246 | 28 | 37 | 0.0 | 0.0 | 0.00 | 0.00 | 0.00 | 52 | 1019.2 |
| 20260905213741 | 28 | 31 | 0.0 | 0.0 | 0.00 | 0.00 | 0.00 | 56 | 1019.2 |
| 20260905213237 | 28 | 21 | 1.6 | 3.2 | 0.00 | 0.00 | 0.00 | 52 | 1019.2 |
| 20260905212732 | 28 | 24 | 0.0 | 1.6 | 0.00 | 0.00 | 0.00 | 50 | 1019.1 |
| 20260905212231 | 28 | 23 | 0.0 | 0.0 | 0.00 | 0.00 | 0.00 | 50 | 1019.1 |
| 20260905211731 | 28 | 296 | 3.2 | 3.2 | 0.00 | 0.00 | 0.00 | 50 | 1018.9 |
| 20260905211226 | 28 | 27 | 1.6 | 1.6 | 0.00 | 0.00 | 0.00 | 51 | 1019.2 |
| 20260905210723 | 28 | 255 | 1.6 | 4.8 | 0.00 | 0.00 | 0.00 | 50 | 1018.8 |
| 20260905210223 | 28 | 286 | 0.0 | 3.2 | 0.00 | 0.00 | 0.00 | 61 | 1019.3 |
| 20260905205721 | 28 | 30 | 1.6 | 3.2 | 0.00 | 0.00 | 0.00 | 59 | 1018.9 |
| 20260905205216 | 29 | 34 | 0.0 | 0.0 | 0.00 | 0.00 | 0.00 | 57 | 1019.3 |
| 20260905204716 | 29 | 31 | 0.0 | 0.0 | 0.00 | 0.00 | 0.00 | 55 | 1019.3 |
| 20260905204212 | 30 | 35 | 0.0 | 0.0 | 0.00 | 0.00 | 0.00 | 58 | 1019.3 |
| 20260905203712 | 30 | 19 | 3.2 | 3.2 | 0.00 | 0.00 | 0.00 | 56 | 1019.2 |
| 20260905203207 | 30 | 30 | 0.0 | 0.0 | 0.00 | 0.00 | 0.00 | 54 | 1019.3 |
| 20260905202702 | 30 | 41 | 0.0 | 1.6 | 0.00 | 0.00 | 0.00 | 53 | 1019.3 |
| 20260905202158 | 29 | 274 | 1.6 | 3.2 | 0.00 | 0.00 | 0.00 | 53 | 1019.3 |
| 20260905201653 | 29 | 9 | 1.6 | 1.6 | 0.00 | 0.00 | 0.00 | 55 | 1019.4 |
| 20260905201153 | 28 | 13 | 0.0 | 1.6 | 0.00 | 0.00 | 0.00 | 55 | 1019.4 |
| 20260905200648 | 28 | 39 | 3.2 | 6.4 | 0.00 | 0.00 | 0.00 | 53 | 1019.3 |
| 20260905200143 | 28 | 13 | 1.6 | 1.6 | 0.00 | 0.00 | 0.00 | 56 | 1019.5 |
| 20260905195641 | 28 | 29 | 0.0 | 1.6 | 0.00 | 0.00 | 0.00 | 54 | 1019.5 |
| 20260905195137 | 27 | 288 | 0.0 | 1.6 | 0.00 | 0.00 | 0.00 | 56 | 1019.4 |
| 20260905194632 | 27 | 321 | 3.2 | 3.2 | 0.00 | 0.00 | 0.00 | 56 | 1019.4 |
| 20260905194131 | 26 | 23 | 1.6 | 1.6 | 0.00 | 0.00 | 0.00 | 58 | 1019.5 |
| 20260905193626 | 26 | 342 | 1.6 | 3.2 | 0.00 | 0.00 | 0.00 | 60 | 1019.4 |
| 20260905193121 | 25 | 28 | 0.0 | 0.0 | 0.00 | 0.00 | 0.00 | 65 | 1019.4 |
| 20260905192617 | 25 | 23 | 0.0 | 1.6 | 0.00 | 0.00 | 0.00 | 65 | 1019.3 |
| 20260905192113 | 25 | 331 | 1.6 | 1.6 | 0.00 | 0.00 | 0.00 | 73 | 1019.4 |
| 20260905191612 | 25 | 39 | 0.0 | 0.0 | 0.00 | 0.00 | 0.00 | 73 | 1019.4 |
| 20260905191111 | 25 | 28 | 0.0 | 1.6 | 0.00 | 0.00 | 0.00 | 67 | 1019.5 |
| 20260905190609 | 24 | 48 | 0.0 | 0.0 | 0.00 | 0.00 | 0.00 | 73 | 1018.9 |
| 20260905190108 | 24 | 32 | 0.0 | 1.6 | 0.00 | 0.00 | 0.00 | 72 | 1018.9 |
| 20260905185607 | 25 | 20 | 0.0 | 0.0 | 0.00 | 0.00 | 0.00 | 73 | 1019.1 |
| 20260905185102 | 24 | 37 | 0.0 | 0.0 | 0.00 | 0.00 | 0.00 | 66 | 1018.9 |
| 20260905184557 | 24 | 23 | 1.6 | 3.2 | 0.00 | 0.00 | 0.00 | 67 | 1018.8 |
| 20260905184056 | 23 | 24 | 4.8 | 4.8 | 0.00 | 0.00 | 0.00 | 68 | 1018.8 |
| 20260905183555 | 23 | 39 | 1.6 | 3.2 | 0.00 | 0.00 | 0.00 | 76 | 1019.2 |
| 20260905183051 | 23 | 36 | 0.0 | 0.0 | 0.00 | 0.00 | 0.00 | 78 | 1019.3 |
| 20260905182550 | 22 | 45 | 0.0 | 0.0 | 0.00 | 0.00 | 0.00 | 81 | 1019.5 |
| 20260905182050 | 22 | 48 | 0.0 | 0.0 | 0.00 | 0.00 | 0.00 | 81 | 1019.7 |
| 20260905181545 | 22 | 47 | 0.0 | 1.6 | 0.00 | 0.00 | 0.00 | 79 | 1019.9 |
| 20260905181045 | 22 | 201 | 1.6 | 3.2 | 0.00 | 0.00 | 0.00 | 77 | 1020.3 |
| 20260905180545 | 22 | 352 | 0.0 | 0.0 | 0.00 | 0.00 | 0.00 | 75 | 1020.6 |
| 20260905180040 | 22 | 22 | 0.0 | 1.6 | 0.00 | 0.00 | 0.00 | 74 | 1020.7 |
| 20260905175539 | 22 | 333 | 3.2 | 3.2 | 0.00 | 0.00 | 0.00 | 72 | 1020.6 |
| 20260905175035 | 23 | 175 | 3.2 | 4.8 | 0.00 | 0.00 | 0.00 | 70 | 1020.8 |
| 20260905174530 | 23 | 33 | 1.6 | 3.2 | 0.00 | 0.00 | 0.00 | 69 | 1020.8 |
| 20260905174026 | 23 | 24 | 6.4 | 9.7 | 0.00 | 0.00 | 0.00 | 68 | 1020.9 |
| 20260905173522 | 24 | 25 | 1.6 | 3.2 | 0.00 | 0.00 | 0.00 | 65 | 1021.2 |
| 20260905173017 | 25 | 98 | 4.8 | 6.4 | 0.00 | 0.00 | 0.00 | 62 | 1021.4 |
| 20260905172515 | 25 | 135 | 4.8 | 4.8 | 0.00 | 0.00 | 0.00 | 61 | 1021.4 |
| 20260905172011 | 25 | 351 | 3.2 | 3.2 | 0.00 | 0.00 | 0.00 | 61 | 1021.7 |
| 20260905171508 | 26 | 276 | 4.8 | 6.4 | 0.00 | 0.00 | 0.00 | 59 | 1022.0 |
| 20260905171003 | 26 | 52 | 3.2 | 4.8 | 0.00 | 0.00 | 0.00 | 60 | 1022.2 |
| 20260905170500 | 26 | 47 | 1.6 | 3.2 | 0.00 | 0.00 | 0.00 | 61 | 1022.4 |
| 20260905170000 | 27 | 83 | 4.8 | 6.4 | 0.00 | 0.00 | 0.00 | 61 | 1022.3 |
| 20260905165455 | 28 | 24 | 4.8 | 6.4 | 0.00 | 0.00 | 0.00 | 62 | 1022.4 |
| 20260905164950 | 28 | 116 | 3.2 | 3.2 | 0.00 | 0.00 | 0.00 | 66 | 1022.3 |
| 20260905164449 | 28 | 27 | 1.6 | 1.6 | 0.00 | 0.00 | 0.00 | 63 | 1022.1 |
| 20260905163944 | 28 | 28 | 1.6 | 1.6 | 0.00 | 0.00 | 0.00 | 63 | 1022.3 |
| 20260905163441 | 29 | 46 | 1.6 | 1.6 | 0.00 | 0.00 | 0.00 | 61 | 1022.4 |
| 20260905162937 | 29 | 34 | 1.6 | 3.2 | 0.00 | 0.00 | 0.00 | 59 | 1022.2 |
| 20260905162432 | 30 | 57 | 1.6 | 1.6 | 0.00 | 0.00 | 0.00 | 60 | 1022.2 |
| 20260905161927 | 30 | 39 | 0.0 | 0.0 | 0.00 | 0.00 | 0.00 | 61 | 1021.8 |
| 20260905161426 | 30 | 25 | 0.0 | 0.0 | 0.00 | 0.00 | 0.00 | 59 | 1021.8 |
| 20260905160924 | 30 | 30 | 3.2 | 3.2 | 0.00 | 0.00 | 0.00 | 61 | 1021.8 |
| 20260905160418 | 30 | 253 | 3.2 | 3.2 | 0.00 | 0.00 | 0.00 | 61 | 1021.7 |
| 20260905155918 | 30 | 216 | 4.8 | 6.4 | 0.00 | 0.00 | 0.00 | 59 | 1021.8 |
| 20260905155418 | 30 | 24 | 3.2 | 4.8 | 0.00 | 0.00 | 0.00 | 61 | 1022.0 |
| 20260905154917 | 29 | 40 | 3.2 | 3.2 | 0.00 | 0.00 | 0.00 | 61 | 1022.1 |
| 20260905154413 | 29 | 30 | 1.6 | 1.6 | 0.00 | 0.00 | 0.00 | 62 | 1022.1 |
| 20260905153908 | 30 | 43 | 4.8 | 4.8 | 0.00 | 0.00 | 0.00 | 60 | 1022.1 |
| 20260905153404 | 29 | 24 | 3.2 | 4.8 | 0.00 | 0.00 | 0.00 | 60 | 1022.2 |
| 20260905152904 | 29 | 359 | 3.2 | 3.2 | 0.00 | 0.00 | 0.00 | 62 | 1022.1 |
| 20260905152403 | 29 | 208 | 1.6 | 1.6 | 0.00 | 0.00 | 0.00 | 65 | 1021.8 |
| 20260905151859 | 28 | 94 | 3.2 | 4.8 | 0.00 | 0.00 | 0.00 | 64 | 1021.7 |
| 20260905151355 | 28 | 33 | 0.0 | 1.6 | 0.00 | 0.00 | 0.00 | 65 | 1021.8 |
| 20260905150854 | 28 | 42 | 1.6 | 1.6 | 0.00 | 0.00 | 0.00 | 65 | 1021.5 |
| 20260905150348 | 28 | 30 | 0.0 | 0.0 | 0.00 | 0.00 | 0.00 | 68 | 1021.5 |
| 20260905145846 | 28 | 34 | 0.0 | 0.0 | 0.00 | 0.00 | 0.00 | 73 | 1021.5 |
| 20260905145346 | 27 | 25 | 1.6 | 3.2 | 0.00 | 0.00 | 0.00 | 69 | 1021.5 |
| 20260905144845 | 27 | 28 | 3.2 | 3.2 | 0.00 | 0.00 | 0.00 | 72 | 1021.5 |
| 20260905144341 | 27 | 32 | 0.0 | 0.0 | 0.00 | 0.00 | 0.00 | 70 | 1021.7 |
| 20260905143839 | 27 | 313 | 0.0 | 1.6 | 0.00 | 0.00 | 0.00 | 71 | 1021.5 |
| 20260905143334 | 27 | 33 | 1.6 | 3.2 | 0.00 | 0.00 | 0.00 | 70 | 1021.6 |
| 20260905142833 | 27 | 28 | 1.6 | 3.2 | 0.00 | 0.00 | 0.00 | 73 | 1021.7 |
| 20260905142332 | 27 | 188 | 3.2 | 3.2 | 0.00 | 0.00 | 0.00 | 73 | 1021.7 |
| 20260905141829 | 26 | 26 | 0.0 | 0.0 | 0.00 | 0.00 | 0.00 | 73 | 1021.7 |
| 20260905141324 | 26 | 28 | 1.6 | 1.6 | 0.00 | 0.00 | 0.00 | 74 | 1021.7 |
| 20260905140820 | 26 | 27 | 1.6 | 1.6 | 0.00 | 0.00 | 0.00 | 74 | 1021.6 |
| 20260905140319 | 26 | 27 | 0.0 | 0.0 | 0.00 | 0.00 | 0.00 | 75 | 1021.6 |
| 20260905135818 | 26 | 32 | 0.0 | 0.0 | 0.00 | 0.00 | 0.00 | 74 | 1021.6 |
| 20260905135314 | 26 | 338 | 1.6 | 1.6 | 0.00 | 0.00 | 0.00 | 73 | 1021.6 |
| 20260905134809 | 26 | 32 | 0.0 | 0.0 | 0.00 | 0.00 | 0.00 | 75 | 1021.5 |
| 20260905134308 | 26 | 28 | 0.0 | 0.0 | 0.00 | 0.00 | 0.00 | 74 | 1021.7 |
| 20260905133808 | 26 | 18 | 0.0 | 0.0 | 0.00 | 0.00 | 0.00 | 75 | 1021.7 |
| 20260905133304 | 26 | 38 | 0.0 | 0.0 | 0.00 | 0.00 | 0.00 | 76 | 1021.6 |
| 20260905132803 | 26 | 21 | 0.0 | 1.6 | 0.00 | 0.00 | 0.00 | 75 | 1021.7 |
| 20260905132259 | 26 | 224 | 1.6 | 1.6 | 0.00 | 0.00 | 0.00 | 76 | 1021.7 |
| 20260905131753 | 26 | 19 | 0.0 | 0.0 | 0.00 | 0.00 | 0.00 | 76 | 1022.0 |
| 20260905131249 | 25 | 5 | 0.0 | 1.6 | 0.00 | 0.00 | 0.00 | 76 | 1021.7 |
| 20260905130743 | 25 | 22 | 0.0 | 1.6 | 0.00 | 0.00 | 0.00 | 75 | 1021.8 |
| 20260905130243 | 25 | 282 | 3.2 | 3.2 | 0.00 | 0.00 | 0.00 | 75 | 1022.1 |
| 20260905125738 | 25 | 13 | 1.6 | 1.6 | 0.00 | 0.00 | 0.00 | 76 | 1022.0 |
| 20260905125233 | 25 | 23 | 0.0 | 0.0 | 0.00 | 0.00 | 0.00 | 77 | 1021.8 |
| 20260905124730 | 25 | 19 | 0.0 | 0.0 | 0.00 | 0.00 | 0.00 | 77 | 1021.8 |
| 20260905124225 | 25 | 2 | 0.0 | 0.0 | 0.00 | 0.00 | 0.00 | 77 | 1021.8 |
| 20260905123720 | 25 | 120 | 1.6 | 3.2 | 0.00 | 0.00 | 0.00 | 76 | 1021.7 |
| 20260905123217 | 25 | 300 | 1.6 | 1.6 | 0.00 | 0.00 | 0.00 | 75 | 1021.7 |
| 20260905122717 | 25 | 334 | 1.6 | 1.6 | 0.00 | 0.00 | 0.00 | 76 | 1021.7 |
| 20260905122211 | 25 | 24 | 0.0 | 0.0 | 0.00 | 0.00 | 0.00 | 75 | 1022.0 |
| 20260905121706 | 25 | 17 | 3.2 | 3.2 | 0.00 | 0.00 | 0.00 | 75 | 1021.6 |
| 20260905121202 | 25 | 36 | 1.6 | 1.6 | 0.00 | 0.00 | 0.00 | 76 | 1021.5 |
| 20260905120701 | 24 | 30 | 1.6 | 3.2 | 0.00 | 0.00 | 0.00 | 77 | 1021.5 |
| 20260905120155 | 23 | 47 | 1.6 | 1.6 | 0.00 | 0.00 | 0.00 | 79 | 1021.6 |
| 20260905115655 | 23 | 57 | 0.0 | 0.0 | 0.00 | 0.00 | 0.00 | 80 | 1021.4 |
| 20260905115151 | 23 | 53 | 0.0 | 0.0 | 0.00 | 0.00 | 0.00 | 80 | 1021.5 |
| 20260905114650 | 23 | 21 | 1.6 | 3.2 | 0.00 | 0.00 | 0.00 | 79 | 1021.2 |
| 20260905114149 | 23 | 35 | 0.0 | 0.0 | 0.00 | 0.00 | 0.00 | 80 | 1021.4 |
| 20260905113643 | 23 | 47 | 0.0 | 0.0 | 0.00 | 0.00 | 0.00 | 79 | 1021.3 |
| 20260905113139 | 23 | 36 | 0.0 | 0.0 | 0.00 | 0.00 | 0.00 | 78 | 1021.3 |
| 20260905112639 | 23 | 316 | 1.6 | 1.6 | 0.00 | 0.00 | 0.00 | 79 | 1021.3 |
| 20260905112135 | 23 | 20 | 0.0 | 0.0 | 0.00 | 0.00 | 0.00 | 79 | 1021.3 |
| 20260905111635 | 23 | 3 | 0.0 | 0.0 | 0.00 | 0.00 | 0.00 | 78 | 1021.0 |
| 20260905111134 | 24 | 36 | 1.6 | 1.6 | 0.00 | 0.00 | 0.00 | 76 | 1021.1 |
| 20260905110633 | 25 | 84 | 0.0 | 1.6 | 0.00 | 0.00 | 0.00 | 74 | 1021.1 |
| 20260905110128 | 25 | 343 | 1.6 | 1.6 | 0.00 | 0.00 | 0.00 | 73 | 1021.1 |
| 20260905105623 | 25 | 32 | 0.0 | 0.0 | 0.00 | 0.00 | 0.00 | 73 | 1021.1 |
| 20260905105122 | 25 | 24 | 0.0 | 0.0 | 0.00 | 0.00 | 0.00 | 74 | 1020.9 |
| 20260905104618 | 25 | 192 | 1.6 | 3.2 | 0.00 | 0.00 | 0.00 | 73 | 1021.0 |
| 20260905104113 | 25 | 117 | 1.6 | 1.6 | 0.00 | 0.00 | 0.00 | 74 | 1021.0 |
| 20260905103608 | 24 | 238 | 3.2 | 4.8 | 0.00 | 0.00 | 0.00 | 74 | 1020.9 |
| 20260905103104 | 24 | 8 | 3.2 | 3.2 | 0.00 | 0.00 | 0.00 | 75 | 1021.0 |
| 20260905102559 | 23 | 29 | 1.6 | 1.6 | 0.00 | 0.00 | 0.00 | 76 | 1020.9 |
| 20260905102056 | 23 | 23 | 1.6 | 1.6 | 0.00 | 0.00 | 0.00 | 77 | 1021.0 |
| 20260905101554 | 23 | 1 | 0.0 | 0.0 | 0.00 | 0.00 | 0.00 | 78 | 1020.9 |
| 20260905101053 | 23 | 78 | 1.6 | 1.6 | 0.00 | 0.00 | 0.00 | 79 | 1021.0 |
| 20260905100549 | 23 | 4 | 0.0 | 0.0 | 0.00 | 0.00 | 0.00 | 78 | 1020.8 |
| 20260905100049 | 23 | 344 | 1.6 | 1.6 | 0.00 | 0.00 | 0.00 | 78 | 1021.0 |
| 20260905095543 | 23 | 11 | 0.0 | 1.6 | 0.00 | 0.00 | 0.00 | 78 | 1020.9 |
| 20260905095039 | 23 | 83 | 1.6 | 1.6 | 0.00 | 0.00 | 0.00 | 77 | 1021.0 |
| 20260905094533 | 23 | 356 | 0.0 | 0.0 | 0.00 | 0.00 | 0.00 | 77 | 1020.7 |
| 20260905094032 | 24 | 15 | 0.0 | 0.0 | 0.00 | 0.00 | 0.00 | 75 | 1020.6 |
| 20260905093527 | 25 | 21 | 0.0 | 0.0 | 0.00 | 0.00 | 0.00 | 74 | 1020.8 |
| 20260905093024 | 24 | 269 | 3.2 | 3.2 | 0.00 | 0.00 | 0.00 | 74 | 1020.7 |
| 20260905092518 | 24 | 34 | 0.0 | 1.6 | 0.00 | 0.00 | 0.00 | 75 | 1020.8 |
| 20260905092014 | 23 | 316 | 3.2 | 3.2 | 0.00 | 0.00 | 0.00 | 76 | 1020.8 |
| 20260905091514 | 24 | 13 | 0.0 | 0.0 | 0.00 | 0.00 | 0.00 | 76 | 1020.7 |
| 20260905091013 | 24 | 342 | 1.6 | 1.6 | 0.00 | 0.00 | 0.00 | 75 | 1020.8 |
| 20260905090513 | 23 | 30 | 0.0 | 1.6 | 0.00 | 0.00 | 0.00 | 76 | 1020.8 |
| 20260905090008 | 23 | 284 | 1.6 | 1.6 | 0.00 | 0.00 | 0.00 | 78 | 1020.9 |
| 20260905085507 | 23 | 341 | 1.6 | 1.6 | 0.00 | 0.00 | 0.00 | 79 | 1021.1 |
| 20260905085003 | 23 | 285 | 3.2 | 3.2 | 0.00 | 0.00 | 0.00 | 79 | 1020.8 |
| 20260905084502 | 23 | 11 | 0.0 | 0.0 | 0.00 | 0.00 | 0.00 | 79 | 1021.0 |
| 20260905083957 | 23 | 15 | 0.0 | 0.0 | 0.00 | 0.00 | 0.00 | 78 | 1021.2 |
| 20260905083453 | 23 | 4 | 0.0 | 0.0 | 0.00 | 0.00 | 0.00 | 79 | 1021.1 |
| 20260905082948 | 23 | 16 | 1.6 | 1.6 | 0.00 | 0.00 | 0.00 | 78 | 1021.4 |
| 20260905082444 | 23 | 27 | 1.6 | 3.2 | 0.00 | 0.00 | 0.00 | 76 | 1021.2 |
| 20260905081945 | 23 | 24 | 0.0 | 0.0 | 0.00 | 0.00 | 0.00 | 76 | 1021.1 |
| 20260905081439 | 24 | 337 | 1.6 | 1.6 | 0.00 | 0.00 | 0.00 | 76 | 1021.3 |
| 20260905080939 | 24 | 21 | 0.0 | 0.0 | 0.00 | 0.00 | 0.00 | 75 | 1021.3 |
| 20260905080433 | 24 | 26 | 0.0 | 0.0 | 0.00 | 0.00 | 0.00 | 75 | 1021.3 |
| 20260905075932 | 24 | 21 | 1.6 | 3.2 | 0.00 | 0.00 | 0.00 | 76 | 1021.6 |
| 20260905075427 | 24 | 17 | 0.0 | 0.0 | 0.00 | 0.00 | 0.00 | 76 | 1021.4 |
| 20260905074926 | 24 | 306 | 1.6 | 3.2 | 0.00 | 0.00 | 0.00 | 76 | 1021.4 |
| 20260905074422 | 24 | 292 | 3.2 | 3.2 | 0.00 | 0.00 | 0.00 | 77 | 1021.5 |
| 20260905073917 | 23 | 36 | 1.6 | 1.6 | 0.00 | 0.00 | 0.00 | 78 | 1021.6 |
| 20260905073412 | 23 | 0 | 0.0 | 1.6 | 0.00 | 0.00 | 0.00 | 77 | 1021.7 |
| 20260905072908 | 23 | 2 | 0.0 | 0.0 | 0.00 | 0.00 | 0.00 | 77 | 1021.6 |